CGI115 EINN-EINN

Flight info

Callsign CGI115
Flight time 0h 26m
Altitude 1000
Route DCT ENNIS DCT AARAN ISLANDS DCT EINN
Aircraft A189/L-V/N

Departure

Time 2026-05-06 22:17
Airport Shannon Airport (EINN)

Arrival

Time 2026-05-06 22:44
Airport Shannon Airport (EINN)
Time Latitude Longitude Altitude Speed Heading
2026-05-06 22:06 52.70386 -8.90806 12 ft 0 kts 257°
2026-05-06 22:09 52.70386 -8.90807 12 ft 0 kts 260°
2026-05-06 22:10 52.70386 -8.90811 12 ft 0 kts 268°
2026-05-06 22:11 52.70384 -8.90807 12 ft 0 kts 45°
2026-05-06 22:14 52.70391 -8.90796 12 ft 1 kts 256°
2026-05-06 22:14 52.70398 -8.90864 12 ft 7 kts 289°
2026-05-06 22:14 52.70458 -8.90860 12 ft 16 kts 24°
2026-05-06 22:15 52.70634 -8.90763 14 ft 32 kts 15°
2026-05-06 22:15 52.70816 -8.90669 14 ft 15 kts 13°
2026-05-06 22:15 52.70897 -8.90698 15 ft 12 kts 322°
2026-05-06 22:15 52.70966 -8.90782 16 ft 12 kts 304°
2026-05-06 22:16 52.70956 -8.90865 19 ft 3 kts 236°
2026-05-06 22:16 52.70901 -8.91002 157 ft 38 kts 237°
2026-05-06 22:16 52.70586 -8.91666 293 ft 104 kts 238°
2026-05-06 22:16 52.70520 -8.92921 497 ft 121 kts 286°
2026-05-06 22:17 52.71086 -8.93959 607 ft 131 kts 333°
2026-05-06 22:17 52.72013 -8.94027 629 ft 138 kts 12°
2026-05-06 22:17 52.72893 -8.93297 536 ft 141 kts 26°
2026-05-06 22:17 52.73734 -8.92614 653 ft 131 kts 13°
2026-05-06 22:18 52.74600 -8.92334 669 ft 123 kts
2026-05-06 22:18 52.75413 -8.92346 695 ft 112 kts 348°
2026-05-06 22:18 52.76178 -8.92524 627 ft 108 kts 343°
2026-05-06 22:18 52.76868 -8.92857 616 ft 101 kts 335°
2026-05-06 22:19 52.77575 -8.93292 496 ft 130 kts 347°
2026-05-06 22:19 52.78597 -8.93636 456 ft 161 kts 348°
2026-05-06 22:19 52.79728 -8.93971 559 ft 166 kts 348°
2026-05-06 22:19 52.80856 -8.94445 639 ft 169 kts 339°
2026-05-06 22:20 52.81934 -8.95260 671 ft 171 kts 332°
2026-05-06 22:20 52.82995 -8.96201 663 ft 174 kts 329°
2026-05-06 22:20 52.84032 -8.97249 654 ft 175 kts 326°
2026-05-06 22:20 52.85035 -8.98403 638 ft 175 kts 322°
2026-05-06 22:21 52.85990 -8.99635 687 ft 173 kts 319°
2026-05-06 22:21 52.86889 -9.00909 808 ft 169 kts 316°
2026-05-06 22:21 52.87854 -9.02146 1087 ft 184 kts 328°
2026-05-06 22:21 52.88653 -9.02984 1013 ft 196 kts 328°
2026-05-06 22:22 52.89354 -9.03690 1179 ft 184 kts 326°
2026-05-06 22:23 52.90372 -9.04949 1193 ft 181 kts 317°
2026-05-06 22:23 52.91307 -9.06425 985 ft 188 kts 311°
2026-05-06 22:23 52.92138 -9.08021 1124 ft 179 kts 308°
2026-05-06 22:23 52.92902 -9.09588 1314 ft 175 kts 308°
2026-05-06 22:24 52.93698 -9.11125 1419 ft 176 kts 310°
2026-05-06 22:24 52.94530 -9.12648 1415 ft 180 kts 310°
2026-05-06 22:24 52.95354 -9.14218 1456 ft 179 kts 309°
2026-05-06 22:24 52.96125 -9.15888 1396 ft 182 kts 303°
2026-05-06 22:25 52.96796 -9.17649 1424 ft 181 kts 301°
2026-05-06 22:25 52.97444 -9.19427 1528 ft 176 kts 300°
2026-05-06 22:25 52.98115 -9.21189 1334 ft 187 kts 302°
2026-05-06 22:25 52.98825 -9.23002 1246 ft 186 kts 302°
2026-05-06 22:26 52.99508 -9.24778 1312 ft 182 kts 301°
2026-05-06 22:26 53.00173 -9.26551 1449 ft 177 kts 301°
2026-05-06 22:26 53.00845 -9.28255 1541 ft 178 kts 303°
2026-05-06 22:26 53.01545 -9.29940 1682 ft 175 kts 302°
2026-05-06 22:27 53.02185 -9.31719 1626 ft 181 kts 297°
2026-05-06 22:27 53.02731 -9.33611 1588 ft 188 kts 299°
2026-05-06 22:27 53.03383 -9.35556 1571 ft 196 kts 301°
2026-05-06 22:27 53.04079 -9.37560 1333 ft 205 kts 300°
2026-05-06 22:28 53.04639 -9.39741 1198 ft 202 kts 285°
2026-05-06 22:28 53.04864 -9.42020 1286 ft 196 kts 280°
2026-05-06 22:28 53.05107 -9.44148 1420 ft 175 kts 276°
2026-05-06 22:28 53.05253 -9.46060 1415 ft 161 kts 272°
2026-05-06 22:29 53.05494 -9.47820 1230 ft 144 kts 286°
2026-05-06 22:29 53.05851 -9.49165 1055 ft 114 kts 283°
2026-05-06 22:29 53.06025 -9.50307 920 ft 94 kts 266°
2026-05-06 22:29 53.05703 -9.50958 986 ft 73 kts 193°
2026-05-06 22:30 53.05259 -9.51500 485 ft 98 kts 239°
2026-05-06 22:30 53.05523 -9.52154 353 ft 76 kts 352°
2026-05-06 22:30 53.05928 -9.52120 412 ft 48 kts 352°
2026-05-06 22:30 53.06264 -9.51991 294 ft 55 kts 14°
2026-05-06 22:31 53.06506 -9.51461 255 ft 52 kts 69°
2026-05-06 22:31 53.06381 -9.50902 82 ft 31 kts 116°
2026-05-06 22:31 53.06394 -9.50845 55 ft 7 kts 247°
2026-05-06 22:31 53.06383 -9.50899 40 ft 0 kts 314°
2026-05-06 22:32 53.06388 -9.50901 65 ft 12 kts 358°
2026-05-06 22:32 53.06325 -9.50162 360 ft 97 kts 108°
2026-05-06 22:32 53.05734 -9.49307 971 ft 144 kts 138°
2026-05-06 22:32 53.04939 -9.48019 1200 ft 177 kts 128°
2026-05-06 22:33 53.04113 -9.46375 1097 ft 194 kts 124°
2026-05-06 22:33 53.03253 -9.44636 1114 ft 192 kts 128°
2026-05-06 22:33 53.02421 -9.42939 1335 ft 190 kts 123°
2026-05-06 22:33 53.01541 -9.41237 1367 ft 196 kts 126°
2026-05-06 22:34 53.00696 -9.39443 1346 ft 201 kts 120°
2026-05-06 22:34 52.99878 -9.37521 1243 ft 203 kts 118°
2026-05-06 22:34 52.99112 -9.35549 1220 ft 201 kts 115°
2026-05-06 22:34 52.98348 -9.33553 1042 ft 204 kts 120°
2026-05-06 22:35 52.97555 -9.31583 882 ft 204 kts 121°
2026-05-06 22:35 52.96743 -9.29683 909 ft 199 kts 124°
2026-05-06 22:35 52.95944 -9.27818 907 ft 200 kts 123°
2026-05-06 22:35 52.95170 -9.25940 1071 ft 194 kts 122°
2026-05-06 22:36 52.94389 -9.24089 1052 ft 198 kts 124°
2026-05-06 22:36 52.93563 -9.22239 1043 ft 200 kts 123°
2026-05-06 22:36 52.92754 -9.20357 1041 ft 199 kts 123°
2026-05-06 22:36 52.91970 -9.18472 996 ft 202 kts 121°
2026-05-06 22:37 52.91243 -9.16500 1131 ft 194 kts 118°
2026-05-06 22:37 52.90557 -9.14541 1124 ft 197 kts 117°
2026-05-06 22:37 52.89888 -9.12565 1251 ft 195 kts 117°
2026-05-06 22:37 52.89248 -9.10593 1242 ft 192 kts 114°
2026-05-06 22:38 52.88630 -9.08667 1270 ft 186 kts 116°
2026-05-06 22:38 52.87838 -9.06917 1118 ft 190 kts 133°
2026-05-06 22:38 52.86897 -9.05460 1249 ft 183 kts 134°
2026-05-06 22:38 52.86012 -9.03872 1167 ft 185 kts 129°
2026-05-06 22:39 52.85259 -9.02119 1066 ft 190 kts 115°
2026-05-06 22:39 52.84693 -9.00156 1061 ft 188 kts 116°
2026-05-06 22:39 52.83960 -8.98373 948 ft 193 kts 124°
2026-05-06 22:39 52.83202 -8.96509 888 ft 193 kts 121°
2026-05-06 22:40 52.82310 -8.94837 938 ft 189 kts 137°
2026-05-06 22:40 52.81317 -8.93440 1068 ft 186 kts 138°
2026-05-06 22:40 52.80322 -8.92048 1149 ft 179 kts 134°
2026-05-06 22:40 52.79409 -8.90884 1099 ft 156 kts 144°
2026-05-06 22:41 52.77751 -8.89394 1102 ft 116 kts 144°
2026-05-06 22:41 52.77062 -8.88705 905 ft 113 kts 146°
2026-05-06 22:41 52.76384 -8.88159 862 ft 107 kts 155°
2026-05-06 22:42 52.75684 -8.87868 847 ft 99 kts 162°
2026-05-06 22:42 52.75033 -8.87612 859 ft 94 kts 162°
2026-05-06 22:42 52.74357 -8.87529 758 ft 100 kts 173°
2026-05-06 22:42 52.73640 -8.87614 620 ft 108 kts 185°
2026-05-06 22:43 52.72932 -8.87919 564 ft 104 kts 193°
2026-05-06 22:43 52.72298 -8.88485 454 ft 101 kts 209°
2026-05-06 22:43 52.71796 -8.89132 374 ft 86 kts 221°
2026-05-06 22:43 52.71450 -8.89805 315 ft 70 kts 220°
2026-05-06 22:44 52.71179 -8.90405 221 ft 60 kts 223°
2026-05-06 22:44 52.70934 -8.90909 112 ft 51 kts 220°
2026-05-06 22:44 52.70739 -8.91325 86 ft 43 kts 224°
2026-05-06 22:44 52.70568 -8.91699 56 ft 36 kts 224°
2026-05-06 22:45 52.70482 -8.91883 16 ft 5 kts 230°
2026-05-06 22:45 52.70411 -8.92029 16 ft 35 kts 227°
2026-05-06 22:45 52.70177 -8.92515 32 ft 61 kts 227°
2026-05-06 22:45 52.69980 -8.92928 24 ft 22 kts 213°
2026-05-06 22:46 52.69904 -8.92899 47 ft 23 kts 156°
2026-05-06 22:46 52.69720 -8.92653 35 ft 34 kts 131°
2026-05-06 22:46 52.69576 -8.92420 17 ft 25 kts 129°
2026-05-06 22:46 52.69514 -8.92285 15 ft 4 kts 107°
2026-05-06 22:47 52.69480 -8.92142 12 ft 21 kts 112°
2026-05-06 22:47 52.69427 -8.91842 11 ft 24 kts 118°
2026-05-06 22:47 52.69313 -8.91733 11 ft 18 kts 129°
2026-05-06 22:47 52.69253 -8.91543 11 ft 17 kts 38°
2026-05-06 22:48 52.69406 -8.91449 12 ft 46 kts 17°
2026-05-06 22:48 52.69821 -8.91202 16 ft 74 kts
2026-05-06 22:48 52.70237 -8.90963 20 ft 46 kts
2026-05-06 22:48 52.70403 -8.90896 12 ft 10 kts 17°
2026-05-06 22:49 52.70437 -8.90836 12 ft 6 kts 104°
2026-05-06 22:49 52.70427 -8.90767 12 ft 5 kts 21°
2026-05-06 22:49 52.70423 -8.90771 12 ft 1 kts 253°